Location: Horowhenua
(40.7500°S, 175.3333°E)
Time: 04:54:28
(UTC+00:00)

Lacrosse 5 rocket - Pass Details

Date: 28 January 2023
Orbit: 455 x 612 km, 57.0° (Epoch: 01 April)

Event Time Altitude Azimuth Distance (km) Brightness Sun altitude
Exits shadow 14:41:29 86° 357° (N) 630 1.4 -23.8°
Maximum altitude 14:41:33 87° 45° (NE) 629 1.4 -23.8°
Drops below altitude 10° 14:46:11 10° 135° (SE) 2,012 5.3 -23.3°
Sets 14:48:31 0° 135° (SE) 2,922 6.4 -23.1°
